{"data":{"norad_id":65293,"intl_designator":"2025-184W","name":"STARLINK-34951","alt_names":[],"object_type":"PAYLOAD","status":"ACTIVE","operator":null,"country":"US","launch_date":"2025-08-22","launch_site_code":"AFWTR","launch_vehicle":null,"mission":null,"orbit_class":"UNKNOWN","rcs_meters":null,"size_class":null,"mass_kg":null,"dimensions":null,"purposes":["comms"],"wikipedia_slug":null,"has_3d_model":false,"image_url":null,"decayed_at":null,"tle_current":{"epoch":"2026-05-25T03:23:58.932384Z","epoch_age_seconds":76957,"freshness":"FRESH","line1":"1 65293U 25184W   26145.14165431 -.00001926  00000+0 -12949-3 0  9995","line2":"2 65293  97.4502 197.6390 0000437  58.4917 301.6353 15.05642952 42801","mean_motion":15.05642952,"eccentricity":4.37e-5,"inclination_deg":97.4502,"raan_deg":197.639,"arg_perigee_deg":58.4917,"mean_anomaly_deg":301.6353,"bstar":-0.00012949,"rev_number":4280,"period_min":95.640204610741,"perigee_km":549.23003399561,"apogee_km":549.83551233378,"semimajor_km":6927.6697731647,"source":"CELESTRAK","updated_at":"2026-05-25T13:38:20.755395Z"}}}